Miscellaneous Local Product
Issued by NWS North Platte, NE

Home | Current Version | Previous Version | Text Only | Print | Product List | Glossary On
Versions: 1 2 3 4 5 6 7 8 9 10 11 12 13 14 15 16 17 18 19 20 21 22 23 24 25 26 27 28 29 30 31 32 33 34 35 36 37 38 39 40 41 42 43 44 45 46 47 48 49 50
000
AXUS43 KLBF 040010
MISLBF


WESTERN AND NORTH CENTRAL NEBRASKA HOURLY WEATHER ROUNDUP
NATIONAL WEATHER SERVICE NORTH PLATTE NE
700 PM CDT THU SEP 03 2015

NOTE: "FAIR" INDICATES FEW OR NO CLOUDS BELOW 12,000 FEET WITH NO
SIGNIFICANT WEATHER AND/OR OBSTRUCTIONS TO VISIBILITY.

NOTE: STATIONS NOT REPORTING VARIABLES SUCH AS SKY/WEATHER OR
PRESSURE ARE PROVIDED BY THE NEBRASKA DEPARTMENT OF
ROADS...RAWS...AND APRS NETWORKS...AND ARE NOT UNDER
NATIONAL WEATHER SERVICE QUALITY CONTROL.

...OBSERVATIONS IN AND NEAR THE EASTERN PANHANDLE OF NEBRASKA...

CITY           SKY/WX    TMP DP  RH WIND       PRES   REMARKS
PINE RIDGE     PTSUNNY   87  48  25 S18G30    29.78R
CHADRON        CLOUDY    90  47  22 S13       29.75S
ALLIANCE       CLOUDY    84  47  27 CALM      29.85R
SIDNEY         PTSUNNY   81  47  30 NW12      29.88S
BIG SPRINGS      N/A     87  54  32 N5          N/A
$$

...OBSERVATIONS IN NORTH CENTRAL NEBRASKA...

CITY           SKY/WX    TMP DP  RH WIND       PRES   REMARKS
VALENTINE      CLOUDY    90  59  35 S7        29.75R
THEDFORD       PTSUNNY   89  64  43 S9        29.78S HX  91
AINSWORTH      CLOUDY    85  67  55 S7        29.76S
O`NEILL        PTSUNNY   86  70  58 SE12G17   29.76S HX  90
ORD            SUNNY     92  62  36 SE13      29.74F HX  92
BROKEN BOW     MOSUNNY   91  61  36 S8        29.76F HX  91
SPRINGVIEW       N/A     89  69  52 E3          N/A  HX  93
SARGENT          N/A     90  64  42 CALM        N/A  HX  91
CHAMBERS         N/A     87  70  56 S3          N/A  HX  91
EWING            N/A     84  71  65 SE5         N/A
$$

...OBSERVATIONS IN SOUTHWEST NEBRASKA AND FAR NORTHEAST COLORADO...

CITY           SKY/WX    TMP DP  RH WIND       PRES   REMARKS
WRAY           CLOUDY    95  38  13 NE8       29.79S HX  90
HOLYOKE        FAIR      90  54  29 CALM      29.81S
IMPERIAL       PTSUNNY   94  50  22 CALM      29.76F HX  91
OGALLALA       PTSUNNY   91  51  25 NW16      29.78R
NORTH PLATTE   CLOUDY    85  68  56 E8        29.75S
MCCOOK         CLOUDY    92  57  30 S10       29.73S HX  90
LEXINGTON      PTSUNNY   88  66  47 E8        29.74S HX  90
PAXTON           N/A     87  68  53 CALM        N/A  HX  90
BRADY            N/A     85  68  56 NE3         N/A
CALLAWAY         N/A     82  72  71 SE7         N/A
$$

...OBSERVATIONS IN CENTRAL LINCOLN COUNTY AREA...

CITY           SKY/WX    TMP DP  RH WIND       PRES   REMARKS
N.P. AIRPORT   CLOUDY    85  68  56 E8        29.75S
N.P. DOWNTOWN    N/A     90  64  41 CALM        N/A  HX  91
N.P. HILLCREST   N/A     89  64  43 SE9         N/A  HX  90
$$

...SOME OBSERVATIONS FROM AROUND THE REGION...

CITY           SKY/WX    TMP DP  RH WIND       PRES   REMARKS
DENVER         LGT RAIN  64  58  80 SW18G31   30.05R
LARAMIE        LGT RAIN  55  50  84 SW7       30.18R
CHEYENNE       CLOUDY    71  45  39 SW21      30.04R
SCOTTSBLUFF    LGT RAIN  79  49  34 E12       29.85F
RAPID CITY     MOSUNNY   87  55  33 NW14      29.73R
PIERRE         PTSUNNY   87  56  34 SE10      29.68R
WINNER         FAIR      87  67  51 SE10      29.71S HX  90
SIOUX FALLS    PTCLDY    83  71  67 S13       29.78S
OMAHA          PTCLDY    88  73  61 SE17      29.79S HX  95
GRAND ISLAND   MOSUNNY   90  68  48 SE12      29.76F HX  94
KANSAS CITY    PTCLDY    86  68  54 S9        29.88S
WICHITA        PTSUNNY   88  63  43 S15       29.84S
HAYS           CLOUDY    93  57  29 S24G32    29.77S HX  92
LIBERAL        PTSUNNY   93  55  27 S23G31    29.82S HX  91
GOODLAND       CLOUDY    92  49  22 S14       29.79F
$$



USA.gov is the U.S. government's official web portal to all federal, state and local government web resources and services.